Location: Huntsville
(41.2590°N, 111.7678°W)
Time: 18:33:58
(UTC+00:00)

Courier 1B Rocket - Pass Details

Date: 23 June 2021
Orbit: 920 x 1202 km, 28.2° (Epoch: 02 August)

Event Time Altitude Azimuth Distance (km) Brightness Sun altitude
Rises 00:27:01 0° 222° (SW) 3,964 8.6 26.6°
Reaches altitude 10° 00:30:46 10° 205° (SSW) 2,954 7.8 25.9°
Maximum altitude 00:35:33 19° 164° (SSE) 2,289 6.8 25.0°
Drops below altitude 10° 00:40:08 10° 121° (ESE) 2,815 7.0 24.1°
Sets 00:43:35 0° 104° (ESE) 3,715 7.5 23.5°
